Pineville, WV

8:00 PM EDT on May 29, 2017 (GMT -0400)
Pineville

Weather History for KI16 - October, 2012

Change the Weather History Date:

Tuesday, October 16, 2012

  Actual Average (KBKW) Record (KBKW)
Temperature  
Mean Temperature 52 °F -  
Max Temperature 65 °F 63 °F 82 °F (1908)
Min Temperature 38 °F 42 °F 21 °F (1907)
Degree Days  
Heating Degree Days 14    
Growing Degree Days 2 (Base 50)    
Moisture  
Dew Point 43 °F    
Average Humidity 84    
Maximum Humidity 100    
Minimum Humidity 40    
Precipitation  
Precipitation 0.00 in - - ()
Sea Level Pressure  
Sea Level Pressure 30.01 in    
Wind  
Wind Speed - (North)    
Max Wind Speed -    
Max Gust Speed -    
Visibility 8 miles    
Events Fog    
Averages and records for this station are not official NWS values.
T = Trace of Precipitation, MM = Missing Value Source: NWS Daily Summary

Daily Weather History Graph

Daily Weather History Graph

Search for Another Location

Airport or City:

Trip Planner

Search our weather history database for the weather conditions in past years. The results will help you decide how hot, cold, wet, or windy it might be!

Date:

Astronomy

Oct. 16, 2012 Rise Set
Actual Time 7:35 AM EDT 6:46 PM EDT
Civil Twilight 7:09 AM EDT 7:13 PM EDT
Nautical Twilight 6:39 AM EDT 7:43 PM EDT
Astronomical Twilight 6:08 AM EDT 8:13 PM EDT
Moon 8:54 AM EDT (10/16) 7:33 PM EDT (10/16)
Length of Visible Light 12h 03m
Length of Day
11h 11m
New Moon, 2% of the Moon is Illuminated
Oct 16
New Moon
Oct 21
First Quarter
Oct 29
Full
Nov 6
Last Quarter
Nov 13
New

Hourly Weather History & Observations

Time (EDT) Temp. Dew Point Humidity Pressure Visibility Wind Dir Wind Speed Gust Speed Precip Events Conditions
12:15 AM 44.6 °F 43.7 °F 97% 29.99 in 10.0 mi North - - N/A   Clear
12:35 AM 43.9 °F 43.5 °F 99% 30.00 in 10.0 mi North - - N/A   Clear
1:15 AM 43.0 °F 42.8 °F 99% 30.00 in 7.0 mi North - - N/A   Clear
1:35 AM 42.3 °F 41.9 °F 99% 30.00 in 10.0 mi North - - N/A   Clear
1:55 AM 41.9 °F 41.9 °F 100% 30.01 in 7.0 mi North - - N/A   Clear
2:35 AM 41.4 °F 41.4 °F 100% 30.02 in 5.0 mi North - - N/A   Clear
2:55 AM 40.8 °F 40.8 °F 100% 30.02 in 7.0 mi North - - N/A   Clear
3:15 AM 41.0 °F 41.0 °F 100% 30.02 in 5.0 mi North - - N/A   Clear
3:35 AM 40.5 °F 40.5 °F 100% 30.02 in 5.0 mi North - - N/A   Clear
3:55 AM 40.1 °F 40.1 °F 100% 30.02 in 7.0 mi North - - N/A   Clear
4:15 AM 39.9 °F 39.9 °F 100% 30.03 in 5.0 mi North - - N/A   Clear
4:35 AM 39.4 °F 39.4 °F 100% 30.03 in 5.0 mi North - - N/A   Clear
4:55 AM 39.2 °F 39.2 °F 100% 30.03 in 7.0 mi North - - N/A   Clear
5:15 AM 39.0 °F 39.0 °F 100% 30.03 in 5.0 mi North - - N/A   Clear
5:55 AM 38.5 °F 38.5 °F 100% 30.04 in 5.0 mi North - - N/A   Mostly Cloudy
6:15 AM 38.5 °F 38.5 °F 100% 30.05 in 5.0 mi North - - N/A   Overcast
6:35 AM 38.8 °F 38.8 °F 100% 30.06 in 3.0 mi North - - N/A   Overcast
6:55 AM 40.3 °F 40.3 °F 100% 30.06 in 0.5 mi North - - N/A Fog Fog
7:15 AM 40.1 °F 40.1 °F 100% 30.06 in 0.2 mi North - - N/A Fog Fog
7:35 AM 40.5 °F 40.5 °F 100% 30.06 in 0.2 mi North - - N/A Fog Fog
8:15 AM 40.6 °F 40.6 °F 100% 30.08 in 0.2 mi North - - N/A Fog Fog
8:35 AM 41.0 °F 41.0 °F 100% 30.08 in 0.2 mi North - - N/A Fog Fog
8:55 AM 42.1 °F 42.1 °F 100% 30.08 in 0.2 mi North - - N/A Fog Fog
9:35 AM 43.3 °F 43.3 °F 100% 30.09 in 0.2 mi North - - N/A Fog Fog
9:55 AM 44.6 °F 44.6 °F 100% 30.09 in 0.5 mi North - - N/A Fog Fog
10:15 AM 46.0 °F 46.0 °F 100% 30.09 in 1.2 mi North - - N/A   Overcast
10:35 AM 49.8 °F 49.8 °F 100% 30.08 in 10.0 mi North - - N/A   Scattered Clouds
10:55 AM 52.3 °F 47.3 °F 83% 30.08 in 10.0 mi North - - N/A   Clear
11:15 AM 55.2 °F 43.9 °F 66% 30.08 in 10.0 mi North - - N/A   Unknown
12:15 PM 57.4 °F 43.9 °F 61% 30.06 in 10.0 mi North - - N/A   Clear
12:55 PM 60.3 °F 42.6 °F 52% 30.04 in 10.0 mi North - - N/A   Clear
1:15 PM 61.3 °F 41.7 °F 49% 30.04 in 10.0 mi North - - N/A   Clear
1:35 PM 62.2 °F 41.9 °F 47% 30.02 in 10.0 mi North - - N/A   Clear
1:55 PM 62.8 °F 39.7 °F 43% 30.01 in 10.0 mi North - - N/A   Clear
2:15 PM 63.9 °F 40.5 °F 42% 30.00 in 10.0 mi North - - N/A   Clear
2:35 PM 64.4 °F 41.4 °F 43% 30.00 in 10.0 mi North - - N/A   Clear
2:55 PM 64.6 °F 41.0 °F 42% 29.99 in 10.0 mi North - - N/A   Clear
3:15 PM 65.1 °F 40.3 °F 40% 29.98 in 10.0 mi North - - N/A   Clear
3:35 PM 65.7 °F 40.5 °F 40% 29.98 in 10.0 mi North - - N/A   Clear
3:55 PM 65.1 °F 40.5 °F 40% 29.97 in 10.0 mi North - - N/A   Clear
4:35 PM 64.9 °F 43.3 °F 45% 29.96 in 10.0 mi North - - N/A   Clear
4:55 PM 64.6 °F 41.0 °F 42% 29.96 in 10.0 mi North - - N/A   Clear
5:35 PM 58.3 °F 46.2 °F 64% 29.96 in 10.0 mi North - - N/A   Clear
5:55 PM 57.4 °F 45.9 °F 65% 29.96 in 10.0 mi North - - N/A   Clear
6:15 PM 54.9 °F 46.0 °F 72% 29.96 in 10.0 mi North - - N/A   Clear
6:35 PM 52.3 °F 45.7 °F 78% 29.96 in 10.0 mi North - - N/A   Clear
6:55 PM 50.5 °F 45.5 °F 83% 29.96 in 10.0 mi North - - N/A   Clear
7:15 PM 49.3 °F 44.8 °F 84% 29.96 in 10.0 mi North - - N/A   Clear
7:35 PM 48.2 °F 44.8 °F 88% 29.96 in 10.0 mi North - - N/A   Clear
7:55 PM 47.3 °F 44.4 °F 90% 29.96 in 10.0 mi North - - N/A   Clear
8:15 PM 46.4 °F 43.9 °F 91% 29.96 in 10.0 mi North - - N/A   Clear
8:35 PM 46.0 °F 43.7 °F 92% 29.96 in 10.0 mi North - - N/A   Clear
8:55 PM 45.5 °F 43.7 °F 93% 29.96 in 10.0 mi North - - N/A   Clear
9:15 PM 45.3 °F 43.5 °F 93% 29.96 in 10.0 mi North - - N/A   Clear
9:35 PM 45.0 °F 43.3 °F 94% 29.96 in 10.0 mi North - - N/A   Clear
9:55 PM 45.0 °F 43.7 °F 95% 29.96 in 10.0 mi North - - N/A   Clear
10:15 PM 44.8 °F 43.7 °F 96% 29.97 in 10.0 mi North - - N/A   Clear
10:35 PM 44.6 °F 43.5 °F 96% 29.97 in 10.0 mi North - - N/A   Clear
10:55 PM 44.6 °F 43.7 °F 97% 29.98 in 10.0 mi North - - N/A   Clear
11:15 PM 44.6 °F 43.7 °F 97% 29.98 in 10.0 mi North - - N/A   Clear
11:35 PM 44.1 °F 43.3 °F 97% 29.98 in 10.0 mi North - - N/A   Clear
11:55 PM 44.1 °F 43.5 °F 98% 29.98 in 10.0 mi North - - N/A   Clear